Regional Weather Roundup
Issued by NWS Grand Forks, ND

Home | Current Version | Previous Version | Graphics & Text | Print | Product List | Glossary On
Versions: 1 2 3 4 5 6 7 8 9 10 11 12 13 14 15 16 17 18 19 20 21 22 23 24 25 26 27 28 29 30 31 32 33 34 35 36 37 38 39 40 41 42 43 44 45 46 47 48 49 50
000
ASUS43 KFGF 242331
RWRFGF
PRAIRIE TO PINES  WEATHER ROUNDUP
NATIONAL WEATHER SERVICE EASTERN NORTH DAKOTA/GRAND FORKS ND
500 PM CST FRI FEB 24 2017

 **SATELLITE DATA USED TO AUGMENT SKY COVER AT AUTOMATED STATIONS**
 *****  WEATHER ACROSS EASTERN NORTH DAKOTA  *****

CITY           SKY/WX    TMP DP  RH WIND       PRES   REMARKS
GRAND FORKS    FAIR      20   8  60 N17       30.12R WCI   5
GRAND FRKS AFB FAIR      21  12  68 N15       30.11S WCI   8
DEVILS LAKE    PTSUNNY   21  13  71 N12       30.11F WCI   9
FARGO          CLOUDY    22  14  71 N22       30.08S WCI   6
WAHPETON ARPT  CLOUDY    23  14  68 NW20G26   30.06R WCI   8
$$

 ***** WEATHER ACROSS CENTRAL AND WESTERN NORTH DAKOTA  *****

CITY           SKY/WX    TMP DP  RH WIND       PRES   REMARKS
BISMARCK       FAIR      31  16  54 NW12      30.12S WCI  22
MINOT          PTSUNNY   28  17  63 N6        30.09S WCI  22
JAMESTOWN      FAIR      24  16  71 N18       30.08S WCI  10
MINOT AFB      FAIR      25  15  65 SE3       30.08F
GARRISON         N/A     28  15  58 W12       30.09F WCI  18
WILLISTON      CLOUDY    27  14  58 SW9       30.09F WCI  18
DICKINSON      CLOUDY    24  13  62 W5        30.05F WCI  18
HETTINGER      FAIR      28  12  51 NW3       30.07F
$$

 *****  OTHER AIRPORT OBSERVATIONS IN OUR AREA  *****

CITY           SKY/WX    TMP DP  RH WIND       PRES   REMARKS
WALHALLA       NOT AVBL
GRAFTON AIRPOR FAIR      18  12  79 N14       30.15R WCI   4
VALLEY CITY AR MOCLDY    23  18  80 N20       30.09S WCI   8
CANDO          NOT AVBL
CAVALIER APRT    N/A     19  10  68 N8        30.13S WCI   9
GWINNER        FAIR      27  18  69 N17G23    30.07S WCI  14
SHEYENNE NWR     N/A     24  13  61 N13       29.95S WCI  12
ROLLA          FLURRIES  19  10  68 N10       30.09S WCI   8
 ***** THE ABOVE OBSERVATIONS ARE NON NWS ARE NOT QUALITY
       CONTROLLED AND MAY MIS-REPORT RAIN FOR SNOW...
$$

  *****  WEATHER ACROSS NORTHERN MINNESOTA  *****

CITY           SKY/WX    TMP DP  RH WIND       PRES   REMARKS
FLAG ISLAND    FAIR      16   1  53 N14       30.02S WCI   1
WARROAD        FAIR      19   7  58 NW15      30.03S WCI   5
ROSEAU         FAIR      18   9  68 NW12      30.05R WCI   5
HALLOCK        FAIR      18  10  73 N14       30.12S WCI   4
THF RVR FALLS  FAIR      19  12  74 NW18      30.07S WCI   4
BAUDETTE       FAIR      17   3  54 N10       29.99F WCI   5
WASKISH        FAIR      19   7  58 N10       29.98F WCI   8
CROOKSTON      FAIR      19  12  73 N22       30.10S WCI   3
STEPHEN NDAWN    N/A     16  10  79 N13         N/A  WCI   2
GREENBUSH NDAW   N/A     16   9  73 NW13        N/A  WCI   2
$$
  *****  WEATHER ACROSS CENTRAL AND WEST MINNESOTA  *****

CITY           SKY/WX    TMP DP  RH WIND       PRES   REMARKS
FOSSTON        FAIR      21   9  58 N18       30.02F WCI   6
BEMIDJI        FAIR      19   7  58 NW16      29.96S WCI   5
PARK RAPIDS    FAIR      22   6  50 N17G28    29.93F WCI   8
ELBOW LAKE     MOCLDY    23  13  66 N22G29    29.99R WCI   7
WADENA         FAIR      21   9  58 N23G29    29.93S WCI   5
DETROIT LAKES  MOCLDY    23  18  80 NW20G25   30.00S WCI   8
MOORHEAD       MOCLDY    21  14  73 N22G29    30.08S WCI   5
FERGUS FALLS   FAIR      21  14  73 N20G28    30.05R WCI   6
MORRIS MN      CLOUDY    25  16  68 N24G30    29.97R WCI   9
STAPLES        FAIR      21   9  58 N15       29.92S WCI   8
$$
  *****  WEATHER ELSEWHERE ACROSS MINNESOTA  *****

CITY           SKY/WX    TMP DP  RH WIND       PRES   REMARKS
DULUTH         MOCLDY    20   9  62 N13       29.84S WCI   7
INTRNTL FALLS  FAIR      19   4  51 N9        29.95F WCI   8
ELY            FAIR      18   1  49 NW6       29.87S WCI   9
CLOQUET        FAIR      19   9  63 N12G21    29.86S WCI   7
WHEATON        CLOUDY    23  14  68 NW21G29   30.05R WCI   8
BRAINERD       FAIR      21   8  57 N17G28    29.91S WCI   7
HIBBING        FAIR      19   5  54 N13       29.88S WCI   6
ALEXANDRIA     FAIR      24  11  57 N20       29.93R WCI  10
SAINT CLOUD    FAIR      24  11  57 N16G26    29.88R WCI  11
MINNEAPOLIS    MOCLDY    26  11  52 N21G26    29.83R WCI  12
$$

  *****  WEATHER ACROSS SOUTH DAKOTA  *****

CITY           SKY/WX    TMP DP  RH WIND       PRES   REMARKS
SIOUX FALLS    CLOUDY    27  16  63 N17       29.95R WCI  14
BROOKINGS      CLOUDY    26  16  65 N23       29.94R WCI  11
WATERTOWN      PTSUNNY   24  14  65 N23G30    29.98R WCI   9
HURON          FAIR      30  16  56 N20       30.03R WCI  17
SISSETON         N/A     24  15  68 N28G35    30.03R WCI   7
ABERDEEN       FAIR      27  15  61 N22G29    30.07R WCI  13
MITCHELL       FAIR      32  17  54 N22G28    30.02S WCI  19
PIERRE         CLOUDY    30  14  51 NW18      30.09S WCI  18
MOBRIDGE       FAIR      32  13  45 N10       30.09R WCI  24
RAPID CITY     PTSUNNY   22  16  78 S9        30.05S WCI  12
$$

  *****  SOME WEATHER IN NEARBY STATES *****

CITY           SKY/WX    TMP DP  RH WIND       PRES   REMARKS
GLASGOW MT     CLOUDY    31  24  75 S7        30.04F WCI  24
GREAT FALLS MT PTSUNNY   32  11  41 N9        30.01S WCI  24
CHEYENNE WY    PTSUNNY   17   9  70 S9        29.93R WCI   6
SCOTTSBLUFF NE CLOUDY    25  17  72 CALM      30.04S
OMAHA NE       FLURRIES  26  17  68 N21G32    29.92R WCI  12
DES MOINES IA  LGT SNOW  26  23  88 N16G30    29.78R VSB 1   WCI  14
DAVENPORT IA   CLOUDY    35  33  92 N10       29.60R FOG
CHICAGO IL     CLOUDY    39  37  92 NW9       29.51R FOG
EAU CLAIRE WI  LGT SNOW  22  17  81 N16G23    29.75R WCI   8
LA CROSSE WI   LGT SNOW  28  23  81 N15       29.69S WCI  16
$$

  *****  SOME NATIONAL WEATHER *****

CITY           SKY/WX    TMP DP  RH WIND       PRES   REMARKS
LA GUARDIA NY  FAIR      64  54  69 S15G23    29.85S
RALEIGH NC     FAIR      74  52  46 S5        29.83S
ATLANTA GA     FAIR      76  52  43 S14       29.79R
NEW ORLEANS LA PTSUNNY   75  61  61 S10       29.79R
OKLAHOMA CITY  FAIR      49  22  34 NW18      29.96R
ALBUQUERQUE NM FAIR      47  -3  12 W17G28    29.94R
SALT LAKE CITY PTSUNNY   32  14  47 W5        30.11R
LOS ANGELES CA FAIR      58  34  40 W15       30.14S
BOISE ID       CLOUDY    34  14  43 W7        30.14R
SEATTLE WA     PTSUNNY   43  28  55 W3        30.16S
$$

*** WEATHER ACROSS MANITOBA...SASKATCHEWAN AND ONTARIO ***
                ***ONTARIO***

CITY           SKY/WX    TMP DP  RH WIND       PRES   REMARKS
GERALDTON      MOCLDY     9   1  72 NE12G18   29.92F WCI  -6
THUNDER BAY    MOCLDY    18   3  53 N9        29.91S WCI   6
SIOUX LOOKOUT  MOCLDY    14   1  57 N6        29.96F WCI   5
TORONTO        CLOUDY    41  39  93 E9        29.67S FOG
BIG TROUT LK   CLOUDY    10  -8  44 E5        30.11F WCI   2
PICKLE LAKE    MOCLDY    12   3  67 NE6       29.98F WCI   3
DRYDEN         CLEAR     12   1  62 N7        29.96F WCI   2
KENORA         PTCLDY    10   1  67 N8        30.01F WCI  -1
$$
                *** MANITOBA***

CITY           SKY/WX    TMP DP  RH WIND       PRES   REMARKS
BRANDON        MOSUNNY   21  12  68 W8        30.10F WCI  12
DAUPHIN        CLEAR     27  16  63 W10       30.07F WCI  17
ISLAND LAKE    MOCLDY     5  -4  66 CALM      30.12S
PILOT MOUND      N/A     19  10  68 NW10        N/A  WCI   8
THE PAS        PTCLDY    14   1  57 NE3       30.10S
THOMPSON       MOCLDY     7  -8  51 VRB2      30.12F
WINNIPEG       CLEAR     16   9  73 NW9       30.13F WCI   4
LYNN LAKE      MOCLDY     5   0  78 NW6       30.06F WCI  -6
CHURCHILL      CLOUDY     0  -8  71 S6        30.24F WCI -12
GILLAM         MOCLDY     3  -8  60 E5        30.18F WCI  -6
$$
                ***SASKATCHEWAN***

CITY           SKY/WX    TMP DP  RH WIND       PRES   REMARKS
ESTEVAN        MOSUNNY   27  18  69 W9        30.07F WCI  17
KINDERSLEY     PTSUNNY   27  14  59 NW14      30.07S WCI  15
LLOYDMINSTER   PTSUNNY   12   5  73 NW12      30.13S WCI  -2
PRINCE ALBERT  FLURRIES  18   9  68 NW14      30.08S WCI   4
REGINA         LGT SNOW  27  25  93 W9        30.03F VSB 3/4 WCI  17
YORKTON        FLURRIES  25  23  93 W3        30.03F
N. BATTLEFORD  MOSUNNY   19  12  73 NW13G20   30.13R WCI   7
LA RONGE       FLURRIES  10  -2  56 W13G21    30.12F WCI  -5
SASKATOON      FLURRIES  25  21  86 N6        30.08S WCI  18
SWIFT CURRENT  PTSUNNY   27  18  69 NW10      30.02S WCI  17
$$
NOTE: THESE ARE AUTOMATED STATIONS WITH LIMITED QUALITY CONTROL
      "FAIR" INDICATES FEW OR NO CLOUDS BELOW 12,000 FEET WITH NO
      SIGNIFICANT WEATHER AND/OR OBSTRUCTIONS TO VISIBILITY.
      SKY/WX - SKY CONDITION AND SIGNIFICANT WEATHER.
      TMP - AIR TEMPERATURE.    DP   - DEWPOINT TEMPERATURE.
      RH  - RELATIVE HUMIDITY.  PRES - PRESSURE.
      HX  - HEAT INDEX.         WCI  - WIND CHILL INDEX.
$




USA.gov is the U.S. government's official web portal to all federal, state and local government web resources and services.